| time (UTC) | temp F | wind direction | speed MPH | gust MPH | rain 1hr in | rain 24hr in | rain mn in | humidity % | barometer mb |
| 20260905135023 | 75 | 174 | 3.0 | 6.0 | 0.00 | 0.30 | 0.00 | 71 | 1016.1 |
| 20260905134022 | 74 | 172 | 2.0 | 7.0 | 0.00 | 0.30 | 0.00 | 72 | 1016.0 |
| 20260905133024 | 73 | 178 | 1.0 | 6.0 | 0.00 | 0.30 | 0.00 | 73 | 1016.0 |
| 20260905132020 | 72 | 159 | 1.0 | 3.0 | 0.00 | 0.30 | 0.00 | 75 | 1015.8 |
| 20260905131020 | 71 | 191 | 0.0 | 4.0 | 0.00 | 0.30 | 0.00 | 77 | 1015.7 |
| 20260905130020 | 71 | 159 | 0.0 | 2.0 | 0.00 | 0.30 | 0.00 | 79 | 1015.7 |
| 20260905125025 | 71 | 194 | 1.0 | 4.0 | 0.00 | 0.30 | 0.00 | 79 | 1015.5 |
| 20260905124020 | 71 | 203 | 0.0 | 2.0 | 0.00 | 0.30 | 0.00 | 79 | 1015.4 |
| 20260905123020 | 71 | 209 | 0.0 | 2.0 | 0.00 | 0.30 | 0.00 | 78 | 1015.3 |
| 20260905122020 | 71 | 189 | 1.0 | 3.0 | 0.00 | 0.30 | 0.00 | 77 | 1015.2 |
| 20260905121021 | 72 | 188 | 2.0 | 4.0 | 0.00 | 0.30 | 0.00 | 76 | 1015.2 |
| 20260905120022 | 72 | 180 | 2.0 | 4.0 | 0.00 | 0.30 | 0.00 | 75 | 1015.2 |
| 20260905115020 | 72 | 174 | 2.0 | 4.0 | 0.00 | 0.30 | 0.00 | 76 | 1015.2 |
| 20260905114025 | 72 | 175 | 1.0 | 5.0 | 0.00 | 0.30 | 0.00 | 76 | 1015.3 |
| 20260905113022 | 72 | 184 | 1.0 | 4.0 | 0.00 | 0.30 | 0.00 | 77 | 1015.3 |
| 20260905112022 | 72 | 181 | 0.0 | 2.0 | 0.00 | 0.30 | 0.00 | 76 | 1015.3 |
| 20260905111044 | 72 | 184 | 0.0 | 3.0 | 0.00 | 0.30 | 0.00 | 76 | 1015.4 |
| 20260905110023 | 72 | 186 | 0.0 | 2.0 | 0.00 | 0.30 | 0.00 | 75 | 1015.4 |
| 20260905105021 | 72 | 175 | 0.0 | 1.0 | 0.00 | 0.30 | 0.00 | 74 | 1015.4 |
| 20260905104024 | 72 | 183 | 0.0 | 2.0 | 0.00 | 0.30 | 0.00 | 75 | 1015.4 |
| 20260905103024 | 72 | 0 | 0.0 | 0.0 | 0.00 | 0.30 | 0.00 | 75 | 1015.4 |
| 20260905102022 | 72 | 0 | 0.0 | 0.0 | 0.00 | 0.30 | 0.00 | 76 | 1015.5 |
| 20260905101018 | 73 | 222 | 0.0 | 0.0 | 0.00 | 0.30 | 0.00 | 74 | 1015.5 |
| 20260905100018 | 73 | 0 | 0.0 | 0.0 | 0.00 | 0.30 | 0.00 | 72 | 1015.5 |
| 20260905095021 | 73 | 192 | 0.0 | 2.0 | 0.00 | 0.30 | 0.00 | 72 | 1015.4 |
| 20260905094039 | 74 | 0 | 0.0 | 0.0 | 0.00 | 0.30 | 0.00 | 71 | 1015.3 |
| 20260905093039 | 74 | 0 | 0.0 | 0.0 | 0.00 | 0.30 | 0.00 | 70 | 1015.3 |
| 20260905092020 | 74 | 199 | 0.0 | 2.0 | 0.00 | 0.30 | 0.00 | 70 | 1015.3 |
| 20260905091019 | 75 | 108 | 0.0 | 0.0 | 0.00 | 0.30 | 0.00 | 69 | 1015.3 |
| 20260905090021 | 74 | 181 | 1.0 | 3.0 | 0.00 | 0.30 | 0.00 | 69 | 1015.2 |
| 20260905085022 | 74 | 184 | 1.0 | 5.0 | 0.00 | 0.30 | 0.00 | 71 | 1015.1 |
| 20260905084022 | 74 | 174 | 1.0 | 3.0 | 0.00 | 0.30 | 0.00 | 70 | 1015.1 |
| 20260905083020 | 74 | 180 | 1.0 | 3.0 | 0.00 | 0.30 | 0.00 | 71 | 1015.0 |
| 20260905082020 | 74 | 184 | 0.0 | 3.0 | 0.00 | 0.30 | 0.00 | 70 | 1015.0 |
| 20260905081020 | 74 | 179 | 0.0 | 3.0 | 0.00 | 0.30 | 0.00 | 69 | 1015.0 |
| 20260905075023 | 75 | 0 | 0.0 | 0.0 | 0.00 | 0.30 | 0.00 | 68 | 1015.1 |
| 20260905074024 | 75 | 0 | 0.0 | 0.0 | 0.00 | 0.30 | 0.00 | 68 | 1015.1 |
| 20260905073021 | 75 | 0 | 0.0 | 0.0 | 0.00 | 0.30 | 0.00 | 68 | 1015.2 |
| 20260905072022 | 75 | 0 | 0.0 | 0.0 | 0.00 | 0.30 | 0.00 | 68 | 1015.1 |
| 20260905071040 | 75 | 190 | 0.0 | 2.0 | 0.00 | 0.30 | 0.00 | 67 | 1015.1 |
| 20260905070025 | 76 | 201 | 0.0 | 1.0 | 0.00 | 0.30 | 0.00 | 67 | 1015.2 |
| 20260905065023 | 76 | 0 | 0.0 | 0.0 | 0.00 | 0.30 | 0.00 | 66 | 1015.3 |
| 20260905064021 | 77 | 185 | 0.0 | 2.0 | 0.00 | 0.30 | 0.00 | 65 | 1015.3 |
| 20260905063019 | 77 | 187 | 1.0 | 4.0 | 0.00 | 0.30 | 0.00 | 64 | 1015.3 |
| 20260905062024 | 77 | 186 | 1.0 | 3.0 | 0.00 | 0.30 | 0.00 | 64 | 1015.3 |
| 20260905061020 | 77 | 196 | 1.0 | 3.0 | 0.00 | 0.30 | 0.00 | 63 | 1015.2 |
| 20260905060041 | 78 | 203 | 0.0 | 3.0 | 0.00 | 0.30 | 0.00 | 63 | 1015.2 |
| 20260905055020 | 78 | 200 | 1.0 | 3.0 | 0.00 | 0.30 | 0.00 | 62 | 1015.1 |
| 20260905054026 | 79 | 223 | 1.0 | 4.0 | 0.00 | 0.30 | 0.00 | 61 | 1015.0 |
| 20260905053022 | 79 | 217 | 1.0 | 4.0 | 0.00 | 0.30 | 0.00 | 60 | 1014.9 |
| 20260905052025 | 79 | 198 | 2.0 | 7.0 | 0.01 | 0.30 | 0.00 | 59 | 1014.9 |
| 20260905051020 | 80 | 200 | 2.0 | 6.0 | 0.02 | 0.30 | 0.00 | 58 | 1014.9 |
| 20260905050020 | 80 | 191 | 4.0 | 7.0 | 0.03 | 0.30 | 0.00 | 58 | 1015.1 |
| 20260905045041 | 80 | 188 | 4.0 | 9.0 | 0.04 | 0.30 | 0.30 | 58 | 1015.2 |
| 20260905044031 | 80 | 198 | 3.0 | 6.0 | 0.05 | 0.30 | 0.30 | 58 | 1015.1 |
| 20260905043020 | 81 | 192 | 4.0 | 8.0 | 0.06 | 0.30 | 0.30 | 57 | 1015.0 |
| 20260905042022 | 81 | 192 | 4.0 | 8.0 | 0.07 | 0.29 | 0.29 | 57 | 1015.1 |
| 20260905041018 | 81 | 184 | 5.0 | 11.0 | 0.08 | 0.28 | 0.28 | 57 | 1015.1 |
| 20260905040020 | 81 | 183 | 4.0 | 8.0 | 0.10 | 0.27 | 0.27 | 56 | 1015.1 |
| 20260905035101 | 81 | 184 | 4.0 | 8.0 | 0.12 | 0.26 | 0.26 | 56 | 1015.0 |
| 20260905034019 | 82 | 183 | 4.0 | 7.0 | 0.13 | 0.25 | 0.25 | 56 | 1015.1 |
| 20260905033023 | 82 | 180 | 4.0 | 10.0 | 0.15 | 0.23 | 0.23 | 55 | 1015.0 |
| 20260905032020 | 82 | 181 | 5.0 | 10.0 | 0.16 | 0.22 | 0.22 | 54 | 1014.8 |
| 20260905031039 | 83 | 175 | 5.0 | 13.0 | 0.14 | 0.20 | 0.20 | 53 | 1014.6 |
| 20260905030021 | 83 | 174 | 4.0 | 8.0 | 0.11 | 0.17 | 0.17 | 53 | 1014.5 |
| 20260905025019 | 84 | 175 | 4.0 | 11.0 | 0.09 | 0.14 | 0.14 | 52 | 1014.3 |
| 20260905024020 | 84 | 176 | 5.0 | 13.0 | 0.08 | 0.12 | 0.12 | 51 | 1014.0 |
| 20260905023020 | 85 | 178 | 6.0 | 23.0 | 0.04 | 0.08 | 0.08 | 50 | 1013.9 |
| 20260905022041 | 85 | 133 | 2.0 | 10.0 | 0.02 | 0.06 | 0.06 | 50 | 1013.8 |
| 20260905021021 | 86 | 106 | 1.0 | 5.0 | 0.02 | 0.06 | 0.06 | 48 | 1013.7 |
| 20260905020022 | 86 | 143 | 2.0 | 8.0 | 0.02 | 0.06 | 0.06 | 46 | 1013.4 |
| 20260905015028 | 87 | 162 | 2.0 | 11.0 | 0.01 | 0.05 | 0.05 | 45 | 1013.2 |
| 20260905014023 | 89 | 155 | 2.0 | 9.0 | 0.00 | 0.04 | 0.04 | 43 | 1013.1 |
| 20260905013022 | 91 | 152 | 2.0 | 7.0 | 0.00 | 0.04 | 0.04 | 36 | 1012.9 |
| 20260905012023 | 94 | 120 | 1.0 | 4.0 | 0.00 | 0.04 | 0.04 | 32 | 1012.6 |
| 20260905011021 | 96 | 190 | 0.0 | 4.0 | 0.00 | 0.04 | 0.04 | 27 | 1012.3 |
| 20260905010023 | 97 | 191 | 1.0 | 3.0 | 0.00 | 0.04 | 0.04 | 26 | 1012.3 |
| 20260905005025 | 98 | 183 | 0.0 | 3.0 | 0.00 | 0.04 | 0.04 | 26 | 1012.2 |
| 20260905004025 | 99 | 191 | 2.0 | 4.0 | 0.00 | 0.04 | 0.04 | 25 | 1012.2 |
| 20260905003021 | 100 | 191 | 1.0 | 4.0 | 0.00 | 0.04 | 0.04 | 24 | 1012.1 |
| 20260905002019 | 100 | 188 | 0.0 | 3.0 | 0.00 | 0.04 | 0.04 | 23 | 1012.0 |
| 20260905001038 | 101 | 184 | 1.0 | 5.0 | 0.00 | 0.04 | 0.04 | 23 | 1012.0 |
| 20260905000021 | 102 | 188 | 2.0 | 6.0 | 0.00 | 0.04 | 0.04 | 22 | 1011.9 |
| 20260904235023 | 101 | 192 | 1.0 | 5.0 | 0.00 | 0.04 | 0.04 | 22 | 1011.9 |
| 20260904234022 | 102 | 183 | 2.0 | 6.0 | 0.00 | 0.04 | 0.04 | 22 | 1011.8 |
| 20260904233019 | 102 | 190 | 1.0 | 6.0 | 0.00 | 0.04 | 0.04 | 22 | 1011.7 |
| 20260904232023 | 100 | 190 | 1.0 | 4.0 | 0.00 | 0.04 | 0.04 | 23 | 1011.5 |
| 20260904231100 | 99 | 175 | 1.0 | 6.0 | 0.00 | 0.04 | 0.04 | 24 | 1011.5 |
| 20260904230022 | 99 | 190 | 1.0 | 7.0 | 0.00 | 0.04 | 0.04 | 24 | 1011.5 |
| 20260904225022 | 100 | 190 | 2.0 | 6.0 | 0.01 | 0.04 | 0.04 | 24 | 1011.5 |
| 20260904224024 | 103 | 182 | 3.0 | 7.0 | 0.01 | 0.04 | 0.04 | 23 | 1011.5 |
| 20260904223021 | 104 | 185 | 2.0 | 7.0 | 0.01 | 0.04 | 0.04 | 22 | 1011.5 |
| 20260904222043 | 103 | 215 | 1.0 | 4.0 | 0.01 | 0.04 | 0.04 | 22 | 1011.6 |
| 20260904221021 | 102 | 215 | 3.0 | 5.0 | 0.01 | 0.05 | 0.04 | 23 | 1011.7 |
| 20260904220021 | 102 | 188 | 6.0 | 9.0 | 0.01 | 0.05 | 0.04 | 23 | 1011.8 |
| 20260904215021 | 102 | 201 | 3.0 | 8.0 | 0.01 | 0.04 | 0.03 | 23 | 1011.9 |
| 20260904214022 | 103 | 191 | 3.0 | 7.0 | 0.02 | 0.04 | 0.03 | 23 | 1011.9 |
| 20260904213021 | 103 | 193 | 2.0 | 8.0 | 0.02 | 0.05 | 0.03 | 23 | 1012.1 |
| 20260904212024 | 102 | 193 | 2.0 | 6.0 | 0.02 | 0.05 | 0.03 | 22 | 1012.2 |
| 20260904211018 | 102 | 246 | 1.0 | 3.0 | 0.02 | 0.05 | 0.03 | 23 | 1012.4 |
| 20260904210021 | 102 | 192 | 5.0 | 9.0 | 0.02 | 0.06 | 0.03 | 22 | 1012.6 |
| 20260904205019 | 102 | 181 | 4.0 | 9.0 | 0.01 | 0.05 | 0.02 | 22 | 1012.7 |
| 20260904204022 | 102 | 122 | 1.0 | 3.0 | 0.01 | 0.05 | 0.01 | 22 | 1012.8 |
| 20260904203024 | 101 | 188 | 4.0 | 9.0 | 0.01 | 0.04 | 0.01 | 22 | 1013.0 |
| 20260904202019 | 100 | 194 | 2.0 | 5.0 | 0.01 | 0.04 | 0.01 | 24 | 1013.1 |
| 20260904201042 | 100 | 201 | 2.0 | 6.0 | 0.01 | 0.04 | 0.01 | 23 | 1013.3 |
| 20260904200023 | 100 | 227 | 3.0 | 7.0 | 0.01 | 0.04 | 0.01 | 25 | 1013.4 |
| 20260904195023 | 100 | 197 | 2.0 | 6.0 | 0.01 | 0.05 | 0.01 | 24 | 1013.5 |
| 20260904194022 | 101 | 225 | 4.0 | 8.0 | 0.00 | 0.04 | 0.00 | 25 | 1013.5 |
| 20260904193020 | 100 | 188 | 1.0 | 6.0 | 0.00 | 0.05 | 0.00 | 26 | 1013.7 |
| 20260904192020 | 100 | 183 | 2.0 | 7.0 | 0.00 | 0.05 | 0.00 | 25 | 1013.8 |
| 20260904191026 | 99 | 257 | 2.0 | 6.0 | 0.00 | 0.05 | 0.00 | 27 | 1014.0 |
| 20260904190021 | 98 | 264 | 1.0 | 4.0 | 0.00 | 0.05 | 0.00 | 29 | 1014.1 |
| 20260904185025 | 98 | 286 | 2.0 | 6.0 | 0.00 | 0.05 | 0.00 | 29 | 1014.3 |
| 20260904184023 | 97 | 213 | 1.0 | 4.0 | 0.00 | 0.06 | 0.00 | 29 | 1014.4 |
| 20260904183021 | 97 | 233 | 4.0 | 9.0 | 0.00 | 0.06 | 0.00 | 30 | 1014.6 |
| 20260904182043 | 96 | 260 | 4.0 | 7.0 | 0.00 | 0.08 | 0.00 | 32 | 1014.7 |
| 20260904181024 | 96 | 278 | 4.0 | 8.0 | 0.00 | 0.08 | 0.00 | 32 | 1014.9 |
| 20260904180025 | 95 | 221 | 3.0 | 8.0 | 0.00 | 0.08 | 0.00 | 32 | 1015.0 |
| 20260904175101 | 94 | 230 | 3.0 | 7.0 | 0.00 | 0.10 | 0.00 | 34 | 1015.2 |
| 20260904174021 | 93 | 279 | 3.0 | 6.0 | 0.00 | 0.10 | 0.00 | 35 | 1015.3 |
| 20260904173040 | 93 | 236 | 3.0 | 7.0 | 0.00 | 0.11 | 0.00 | 36 | 1015.4 |
| 20260904172020 | 92 | 278 | 3.0 | 7.0 | 0.00 | 0.11 | 0.00 | 37 | 1015.5 |
| 20260904171059 | 91 | 301 | 4.0 | 7.0 | 0.00 | 0.11 | 0.00 | 38 | 1015.5 |
| 20260904170024 | 91 | 308 | 3.0 | 6.0 | 0.00 | 0.11 | 0.00 | 38 | 1015.5 |
| 20260904165022 | 90 | 306 | 3.0 | 6.0 | 0.00 | 0.11 | 0.00 | 39 | 1015.4 |
| 20260904164021 | 90 | 270 | 4.0 | 8.0 | 0.00 | 0.12 | 0.00 | 40 | 1015.5 |
| 20260904163024 | 89 | 270 | 4.0 | 8.0 | 0.00 | 0.12 | 0.00 | 41 | 1015.5 |
| 20260904162020 | 88 | 268 | 5.0 | 7.0 | 0.00 | 0.12 | 0.00 | 42 | 1015.5 |
| 20260904161040 | 88 | 248 | 5.0 | 9.0 | 0.00 | 0.13 | 0.00 | 43 | 1015.5 |
| 20260904160026 | 88 | 273 | 6.0 | 10.0 | 0.00 | 0.13 | 0.00 | 42 | 1015.5 |
| 20260904155023 | 87 | 270 | 7.0 | 11.0 | 0.00 | 0.13 | 0.00 | 42 | 1015.4 |
| 20260904154021 | 86 | 273 | 7.0 | 11.0 | 0.00 | 0.13 | 0.00 | 44 | 1015.4 |
| 20260904153021 | 86 | 265 | 6.0 | 10.0 | 0.00 | 0.14 | 0.00 | 44 | 1015.6 |
| 20260904152026 | 85 | 247 | 6.0 | 11.0 | 0.00 | 0.14 | 0.00 | 45 | 1015.5 |
| 20260904151022 | 84 | 242 | 9.0 | 13.0 | 0.00 | 0.14 | 0.00 | 46 | 1015.6 |
| 20260904150044 | 84 | 241 | 8.0 | 12.0 | 0.00 | 0.15 | 0.00 | 47 | 1015.5 |
| 20260904145020 | 84 | 236 | 6.0 | 13.0 | 0.00 | 0.15 | 0.00 | 47 | 1015.5 |
| 20260904144019 | 83 | 234 | 5.0 | 9.0 | 0.00 | 0.16 | 0.00 | 47 | 1015.4 |
| 20260904143019 | 82 | 237 | 3.0 | 6.0 | 0.00 | 0.16 | 0.00 | 49 | 1015.4 |
| 20260904142023 | 81 | 240 | 4.0 | 7.0 | 0.00 | 0.16 | 0.00 | 50 | 1015.4 |
| 20260904141021 | 79 | 247 | 2.0 | 4.0 | 0.00 | 0.16 | 0.00 | 51 | 1015.3 |
| 20260904140021 | 78 | 238 | 1.0 | 3.0 | 0.00 | 0.16 | 0.00 | 52 | 1015.2 |